Location: Haskovo
(41.9227°N, 25.5707°E)
Time: 22:19:09
(UTC+03:00)

ISS - Pass Details

Date: 25 May 2025
Orbit: 415 x 416 km, 51.6° (Epoch: 16 June)

Event Time Altitude Azimuth Distance (km) Brightness Sun altitude
Rises 23:19:48 0° 287° (WNW) 2,356 0.7 -21.6°
Reaches altitude 10° 23:22:48 10° 258° (WSW) 1,487 -0.8 -21.9°
Enters shadow 23:23:19 11° 250° (WSW) 1,400 -1.0 -21.9°
